Tracking 28790 objects as of 19-Apr-2024
HD Live streaming from Space Station
objects crossing your sky now

COSMOS 2162

Track COSMOS 2162 now!
10-day predictions
COSMOS 2162 is classified as:


NORAD ID: 21733
Int'l Code: 1991-068F
Perigee: 1,415.1 km
Apogee: 1,425.2 km
Inclination: 82.6 °
Period: 114.1 minutes
Semi major axis: 7791 km
RCS: 1.159 m2 (large)
Launch date: September 28, 1991
Source: Commonwealth of Independent States (former USSR) (CIS)
Launch site: PLESETSK MISSILE AND SPACE COMPLEX (PKMTR)
Your satellite tracking list
Your tracking list is empty




NASA's NSSDC Master Catalog

Two Line Element Set (TLE):
1 21733U 91068F   24110.08699966  .00000054  00000-0  24393-3 0  9994
2 21733  82.5839 122.5047 0006429 194.4278 220.2377 12.62408701500379
Source of the keplerian elements: AFSPC